Regional Weather Roundup
Issued by NWS

Home | Current Version | Previous Version | Text Only | Print | Product List | Glossary On
Versions: 1 2 3 4 5 6 7 8 9 10 11 12 13 14 15 16 17 18 19 20 21 22 23 24 25 26 27 28 29 30 31 32 33 34 35 36 37 38 39 40 41 42 43 44 45 46 47 48 49 50
066
ASUS43 KDTX 050010
RWRMI
MICHIGAN HOURLY REGIONAL WEATHER ROUNDUP
NATIONAL WEATHER SERVICE DETROIT/PONTIAC MI
ISSUED BY NATIONAL WEATHER SERVICE GRAND RAPIDS MI
700 PM EST SUN DEC 04 2016

NOTE: "FAIR" INDICATES FEW OR NO CLOUDS BELOW 12,000 FEET WITH NO
SIGNIFICANT WEATHER AND/OR OBSTRUCTION TO VISIBILITY.

MIZ047>049-052>055-059>063-066>070-074>076-081>083-050100-
SOUTHEAST LOWER MICHIGAN

CITY           SKY/WX    TMP DP  RH WIND       PRES   REMARKS
ADRIAN         LGT SNOW  32  32 100 SE8       29.91F FOG     WCI  25
6HR MIN TEMP:  32; 6HR MAX TEMP:  37; 6HR PCP:  0.03;

ALMA           LGT SNOW  32  32  99 SE9       29.88F WCI  25
ANN ARBOR      LGT SNOW  33  32  96 E9        29.90F VSB 1   WCI  25
BAD AXE        LGT SNOW  33  31  96 SE9       29.94F WCI  25
DETROIT CITY   CLOUDY    38  31  76 E8        29.93F WCI  32
6HR MIN TEMP:  37; 6HR MAX TEMP:  39; 6HR PCP: TRACE;

DETROIT        LGT SNOW  36  30  79 E7        29.93F WCI  30
6HR MIN TEMP:  36; 6HR MAX TEMP:  39; 6HR PCP: TRACE;

FLINT          LGT SNOW  34  30  85 SE13      29.91F FOG     WCI  25
6HR MIN TEMP:  34; 6HR MAX TEMP:  38; 6HR PCP: TRACE;

GROSSE ILE     FLURRIES  36  31  82 E6        29.92F WCI  31
6HR MIN TEMP:  36; 6HR MAX TEMP:  38;

HILLSDALE      LGT SNOW  32  32 100 E14G22    29.84F WCI  22
HOWELL         SNOW      33  31  94 SE9       29.89F VSB 1/2 WCI  25
6HR MIN TEMP:  33; 6HR MAX TEMP:  37;


CITY           SKY/WX    TMP DP  RH WIND       PRES   REMARKS
JACKSON        LGT SNOW  33  30  88 SE16      29.86F VSB 3/4 WCI  23
6HR MIN TEMP:  33; 6HR MAX TEMP:  37; 6HR PCP:  0.05;

LANSING        SNOW      33  30  88 E13       29.87F VSB 1/2 WCI  24
6HR MIN TEMP:  33; 6HR MAX TEMP:  37; 6HR PCP:  0.14;

MASON          LGT SNOW  32  32  99 E8        29.86F VSB 1   WCI  25
MONROE         LGT SNOW  35  33  93 E8        29.91F WCI  28
MT. CLEMENS    CLOUDY    39  31  73 E13       29.90F WCI  31
6HR MIN TEMP:  38; 6HR MAX TEMP:  39;

PONTIAC        FLURRIES  36  28  73 SE13      29.89F WCI  27
6HR MIN TEMP:  36; 6HR MAX TEMP:  37; 6HR PCP: TRACE;

PORT HOPE        N/A     34  32  92 S8        29.93F WCI  27
6HR MIN TEMP:  33; 6HR MAX TEMP:  38; 6HR PCP:  0.05;

PORT HURON     CLOUDY    37  32  81 E5        29.96F WCI  34
TRI CITIES     SNOW      33  33 100 SE8       29.91F VSB 1/2 WCI  26
6HR MIN TEMP:  33; 6HR MAX TEMP:  37; 6HR PCP:  0.02;

YPSILANTI      LGT SNOW  36  32  85 E13       29.92F FOG     WCI  27
6HR MIN TEMP:  37; 6HR MAX TEMP:  40; 6HR PCP: TRACE;

$$
MIZ043>046-050>051-056>058-064>065-071>073-077>080-050100-
SOUTHWEST LOWER MICHIGAN

CITY           SKY/WX    TMP DP  RH WIND       PRES   REMARKS
BATTLE CREEK   LGT SNOW  33  32  96 SE7       29.85F VSB 3/4 WCI  27
6HR MIN TEMP:  33; 6HR MAX TEMP:  36; 6HR PCP:  0.16;

BENTON HARBOR  SNOW      33  31  92 CALM      29.87S VSB 1/2
6HR MIN TEMP:  33; 6HR MAX TEMP:  36; 6HR PCP:  0.38;

BIG RAPIDS     LGT SNOW  33  31  92 CALM      29.86F
6HR MIN TEMP:  33; 6HR MAX TEMP:  37; 6HR PCP:  0.02;

COLDWATER      LGT SNOW  33  32  97 SE10G17   29.85F VSB 1   WCI  25
6HR MIN TEMP:  33; 6HR MAX TEMP:  37;

HOLLAND        LGT SNOW  33  31  92 NW3       29.89R VSB 1
6HR MIN TEMP:  33; 6HR MAX TEMP:  33; 6HR PCP:  0.30;

GRAND RAPIDS   LGT SNOW  33  31  92 SE9       29.86F VSB 3/4 WCI  25
6HR MIN TEMP:  32; 6HR MAX TEMP:  36; 6HR PCP:  0.27;

KALAMAZOO      SNOW      33  31  92 SE6       29.86F VSB 1/2 WCI  28
6HR MIN TEMP:  33; 6HR MAX TEMP:  37; 6HR PCP:  0.26;

MARSHALL       LGT SNOW  32  32  99 SE9       29.85F WCI  25
6HR MIN TEMP:  32; 6HR MAX TEMP:  37; 6HR PCP:  0.06;

MOUNT PLEASANT LGT SNOW  32  32  99 SE7       29.87F WCI  26
6HR MIN TEMP:  32; 6HR MAX TEMP:  37; 6HR PCP:  0.01;

MUSKEGON       SNOW      33  32  96 CALM      29.90R VSB 1/2
6HR MIN TEMP:  33; 6HR MAX TEMP:  37; 6HR PCP:  0.24;

STURGIS        LGT SNOW  33  32  96 SE10      29.84F WCI  25
6HR MIN TEMP:  33; 6HR MAX TEMP:  37; 6HR PCP:  0.11;

$$
MIZ016>042-050100-
NORTHERN LOWER MICHIGAN

CITY           SKY/WX    TMP DP  RH WIND       PRES   REMARKS
ALPENA         LGT SNOW  33  31  92 SE6       29.93F VSB 1   WCI  28
6HR MIN TEMP:  33; 6HR MAX TEMP:  40; 6HR PCP:  0.09;

BEAVER ISLAND  LGT SNOW  32  32  99 SE6       29.89F WCI  27
6HR MIN TEMP:  32; 6HR MAX TEMP:  36;

BELLAIRE       LGT SNOW  32  32  99 CALM      29.91F
6HR MIN TEMP:  32; 6HR MAX TEMP:  35;

CADILLAC       LGT SNOW  31  29  93 SE5       29.85F WCI  26
CHARLEVOIX     LGT SNOW  32  32 100 SE3       29.92F
GAYLORD        LGT SNOW  31  27  85 S3        29.87F FOG
6HR MIN TEMP:  30; 6HR MAX TEMP:  34; 6HR PCP:  0.07;

HOUGHTON LAKE  LGT SNOW  31  29  92 SE5       29.87F FOG     WCI  26
6HR MIN TEMP:  31; 6HR MAX TEMP:  34; 6HR PCP:  0.07;

MANISTEE       LGT SNOW  32  31  96 E5        29.88F FOG     WCI  27
OSCODA         LGT SNOW  34  32  94 MISG      29.93F
6HR MIN TEMP:  34; 6HR MAX TEMP:  40;

PELLSTON       LGT SNOW  32  30  92 S3        29.92F VSB 3/4
6HR MIN TEMP:  32; 6HR MAX TEMP:  36; 6HR PCP:  0.05;

TRAVERSE CITY  LGT SNOW  33  32  96 CALM      29.89F VSB 1
6HR MIN TEMP:  33; 6HR MAX TEMP:  36; 6HR PCP:  0.13;

LUDINGTON      LGT SNOW  32  32 100 SE3       29.87F
6HR MIN TEMP:  32; 6HR MAX TEMP:  32;

$$
MIZ007>008-015-050100-
EASTERN UPPER MICHIGAN

CITY           SKY/WX    TMP DP  RH WIND       PRES   REMARKS
KINROSS        LGT SNOW  32  31  96 S7        29.92F FOG     WCI  26
6HR MIN TEMP:  32; 6HR MAX TEMP:  33; 6HR PCP:  0.10;

MACKINAC ISLAN LGT SNOW  32  32 100 SE5       29.92F WCI  27
6HR MIN TEMP:  32; 6HR MAX TEMP:  36; 6HR PCP:  0.05;

NEWBERRY       LGT SNOW  32  31  97 SE7       29.88F WCI  25
6HR MIN TEMP:  32; 6HR MAX TEMP:  34; 6HR PCP:  0.02;

S. S. MARIE    LGT SNOW  31  29  92 E8        29.91F VSB 3/4 WCI  23
6HR MIN TEMP:  31; 6HR MAX TEMP:  33; 6HR PCP:  0.26;

$$
MIZ004>006-011>014-085-050100-
CENTRAL UPPER MICHIGAN

CITY           SKY/WX    TMP DP  RH WIND       PRES   REMARKS
MANISTIQUE     DRIZZLE   34  32  92 S12G18    29.86F WCI  26
6HR MIN TEMP:  32; 6HR MAX TEMP:  35; 6HR PCP:  0.14;

ESCANABA       LGT SNOW  32  31  96 W3        29.86F FOG
6HR MIN TEMP:  31; 6HR MAX TEMP:  32; 6HR PCP:  0.20;

MENOMINEE      LGT SNOW  32  31  96 CALM        N/A  FOG
6HR MIN TEMP:  32; 6HR MAX TEMP:  32; 6HR PCP:  0.08;

$$
MIZ001>003-009>011-084-050100-
WESTERN UPPER MICHIGAN

CITY           SKY/WX    TMP DP  RH WIND       PRES   REMARKS
IRON MOUNTAIN  LGT SNOW  29  26  89 SE7       29.80F FOG     WCI  22
6HR MIN TEMP:  29; 6HR MAX TEMP:  30; 6HR PCP: TRACE;

HOUGHTON       LGT SNOW  30  28  92 SE8       29.77F VSB 1   WCI  22
6HR MIN TEMP:  29; 6HR MAX TEMP:  30; 6HR PCP:  0.11;

COPPER HARBOR    N/A     32  30  92 SW9       29.80F WCI  24
6HR MIN TEMP:  32; 6HR MAX TEMP:  34; 6HR PCP:  0.10;

IRONWOOD       FLURRIES  30  28  92 VRB6      29.73F WCI  24
6HR MIN TEMP:  30; 6HR MAX TEMP:  31; 6HR PCP: TRACE;

$$

ABBREVIATIONS USED IN REMARKS
   TC - TEMPERATURE IN CELSIUS
  WCI - WIND CHILL INDEX
   HX - HEAT INDEX
  VSB - VISIBILITY





USA.gov is the U.S. government's official web portal to all federal, state and local government web resources and services.